TimeCDT,TemperatureF,Dew PointF,Humidity,Sea Level PressureIn,VisibilityMPH,Wind Direction,Wind SpeedMPH,Gust SpeedMPH,PrecipitationIn,Events,Conditions,WindDirDegrees,DateUTC
12:15 AM,50.0,48.2,94,29.86,10.0,NNW,4.6,-,N/A,,Overcast,330,2013-07-28 05:15:00
12:35 AM,50.0,48.2,94,29.86,10.0,NNW,4.6,-,N/A,,Overcast,330,2013-07-28 05:35:00
12:55 AM,48.2,46.4,93,29.87,10.0,NW,5.8,-,N/A,,Overcast,320,2013-07-28 05:55:00
1:15 AM,48.2,46.4,93,29.86,10.0,NNW,8.1,-,N/A,,Overcast,330,2013-07-28 06:15:00
1:35 AM,48.2,46.4,93,29.87,10.0,NW,8.1,-,N/A,,Overcast,320,2013-07-28 06:35:00
1:55 AM,48.2,46.4,93,29.87,10.0,NNW,6.9,-,N/A,,Overcast,330,2013-07-28 06:55:00
2:15 AM,48.2,46.4,93,29.87,10.0,NNW,5.8,-,N/A,,Overcast,330,2013-07-28 07:15:00
2:35 AM,48.2,46.4,93,29.87,10.0,NW,5.8,-,N/A,,Overcast,320,2013-07-28 07:35:00
2:55 AM,48.2,46.4,93,29.87,10.0,NW,4.6,-,N/A,,Overcast,320,2013-07-28 07:55:00
3:15 AM,48.2,46.4,93,29.87,10.0,NNW,8.1,-,N/A,,Overcast,340,2013-07-28 08:15:00
3:35 AM,48.2,44.6,87,29.87,10.0,North,8.1,-,N/A,,Overcast,350,2013-07-28 08:35:00
3:55 AM,48.2,44.6,87,29.87,10.0,North,5.8,-,N/A,,Overcast,350,2013-07-28 08:55:00
4:15 AM,46.4,44.6,93,29.87,10.0,NNW,6.9,-,N/A,,Overcast,330,2013-07-28 09:15:00
4:35 AM,46.4,44.6,93,29.87,10.0,NW,4.6,-,N/A,,Overcast,320,2013-07-28 09:35:00
4:55 AM,46.4,44.6,93,29.87,10.0,WNW,4.6,-,N/A,,Overcast,300,2013-07-28 09:55:00
5:15 AM,46.4,46.4,100,29.87,10.0,WNW,5.8,-,N/A,,Overcast,300,2013-07-28 10:15:00
5:35 AM,48.2,46.4,93,29.87,10.0,WNW,6.9,-,N/A,,Overcast,300,2013-07-28 10:35:00
5:55 AM,48.2,46.4,93,29.87,10.0,NW,5.8,-,N/A,,Overcast,310,2013-07-28 10:55:00
6:15 AM,48.2,46.4,93,29.87,10.0,NW,8.1,-,N/A,,Overcast,310,2013-07-28 11:15:00
6:35 AM,48.2,46.4,93,29.88,10.0,NW,11.5,-,N/A,,Overcast,310,2013-07-28 11:35:00
6:55 AM,48.2,46.4,93,29.89,5.0,NW,8.1,-,N/A,,Overcast,310,2013-07-28 11:55:00
7:15 AM,50.0,48.2,94,29.89,7.0,WNW,9.2,-,N/A,,Overcast,300,2013-07-28 12:15:00
7:35 AM,50.0,48.2,94,29.89,10.0,NW,8.1,-,N/A,,Overcast,310,2013-07-28 12:35:00
7:55 AM,51.8,48.2,88,29.89,10.0,WNW,9.2,-,N/A,,Overcast,300,2013-07-28 12:55:00
8:15 AM,51.8,48.2,88,29.90,10.0,NW,8.1,-,N/A,,Overcast,320,2013-07-28 13:15:00
8:35 AM,51.8,50.0,94,29.89,7.0,NW,8.1,-,N/A,,Overcast,310,2013-07-28 13:35:00
8:55 AM,51.8,50.0,94,29.89,10.0,WNW,12.7,17.3,N/A,,Overcast,300,2013-07-28 13:55:00
9:15 AM,53.6,50.0,88,29.90,10.0,NW,9.2,-,N/A,,Overcast,320,2013-07-28 14:15:00
9:35 AM,53.6,51.8,94,29.89,7.0,NW,10.4,-,N/A,,Overcast,320,2013-07-28 14:35:00
9:55 AM,53.6,51.8,94,29.89,7.0,NW,8.1,-,N/A,,Overcast,310,2013-07-28 14:55:00
10:15 AM,57.2,53.6,88,29.89,10.0,WNW,15.0,-,N/A,,Overcast,290,2013-07-28 15:15:00
10:35 AM,57.2,51.8,82,29.89,10.0,WNW,15.0,-,N/A,,Overcast,300,2013-07-28 15:35:00
10:55 AM,59.0,51.8,77,29.90,10.0,NW,9.2,18.4,N/A,,Overcast,310,2013-07-28 15:55:00
11:15 AM,60.8,53.6,77,29.89,10.0,WNW,9.2,-,N/A,,Overcast,290,2013-07-28 16:15:00
11:35 AM,60.8,51.8,72,29.90,10.0,NW,10.4,-,N/A,,Mostly Cloudy,310,2013-07-28 16:35:00
11:55 AM,62.6,51.8,68,29.90,10.0,WNW,11.5,20.7,N/A,,Mostly Cloudy,300,2013-07-28 16:55:00
12:15 PM,62.6,51.8,68,29.91,10.0,WNW,12.7,18.4,N/A,,Overcast,300,2013-07-28 17:15:00
12:35 PM,60.8,51.8,72,29.92,10.0,NW,11.5,-,N/A,,Overcast,310,2013-07-28 17:35:00
12:55 PM,62.6,51.8,68,29.91,10.0,WNW,11.5,-,N/A,,Overcast,300,2013-07-28 17:55:00
1:15 PM,62.6,51.8,68,29.92,10.0,WNW,10.4,19.6,N/A,,Overcast,300,2013-07-28 18:15:00
1:35 PM,62.6,53.6,72,29.91,10.0,West,17.3,-,N/A,,Overcast,280,2013-07-28 18:35:00
1:55 PM,64.4,53.6,68,29.92,10.0,West,15.0,20.7,N/A,,Mostly Cloudy,270,2013-07-28 18:55:00
2:15 PM,62.6,53.6,72,29.92,10.0,West,16.1,19.6,N/A,,Overcast,280,2013-07-28 19:15:00
2:35 PM,62.6,53.6,72,29.92,10.0,West,15.0,23.0,N/A,,Overcast,280,2013-07-28 19:35:00
2:55 PM,62.6,51.8,68,29.92,10.0,West,17.3,21.9,N/A,,Overcast,280,2013-07-28 19:55:00
3:15 PM,62.6,53.6,72,29.93,10.0,WNW,16.1,21.9,N/A,,Overcast,300,2013-07-28 20:15:00
3:35 PM,62.6,53.6,72,29.93,10.0,WNW,16.1,21.9,N/A,,Overcast,290,2013-07-28 20:35:00
3:55 PM,60.8,51.8,72,29.94,10.0,WNW,13.8,19.6,N/A,,Overcast,290,2013-07-28 20:55:00
4:15 PM,60.8,53.6,77,29.95,10.0,WNW,13.8,-,N/A,,Overcast,300,2013-07-28 21:15:00
4:35 PM,59.0,53.6,82,29.96,10.0,WNW,11.5,18.4,N/A,,Overcast,300,2013-07-28 21:35:00
4:55 PM,59.0,53.6,82,29.97,4.0,NW,12.7,18.4,N/A,,Haze,310,2013-07-28 21:55:00
5:15 PM,57.2,53.6,88,29.98,3.0,NW,13.8,17.3,N/A,,Drizzle,320,2013-07-28 22:15:00
5:35 PM,57.2,55.4,94,29.98,10.0,WNW,9.2,-,N/A,,Overcast,300,2013-07-28 22:35:00
5:55 PM,59.0,53.6,82,29.97,10.0,NW,11.5,-,N/A,,Overcast,310,2013-07-28 22:55:00
6:15 PM,59.0,53.6,82,29.97,10.0,WNW,10.4,17.3,N/A,,Overcast,300,2013-07-28 23:15:00
6:35 PM,59.0,53.6,82,29.97,10.0,NW,11.5,17.3,N/A,,Overcast,310,2013-07-28 23:35:00
6:55 PM,60.8,53.6,77,29.98,10.0,NW,13.8,17.3,N/A,,Overcast,320,2013-07-28 23:55:00
7:15 PM,59.0,53.6,82,29.99,5.0,NNW,12.7,18.4,N/A,Rain,Rain,330,2013-07-29 00:15:00
7:35 PM,57.2,55.4,94,29.99,10.0,NW,6.9,-,N/A,,Overcast,310,2013-07-29 00:35:00
7:55 PM,57.2,53.6,88,29.99,10.0,NW,9.2,-,N/A,,Overcast,320,2013-07-29 00:55:00
8:15 PM,57.2,53.6,88,30.00,10.0,NW,5.8,-,N/A,,Overcast,320,2013-07-29 01:15:00
8:35 PM,57.2,53.6,88,29.99,10.0,NW,5.8,-,N/A,,Overcast,310,2013-07-29 01:35:00
8:55 PM,57.2,53.6,88,30.00,10.0,WNW,8.1,-,N/A,,Overcast,300,2013-07-29 01:55:00
9:15 PM,57.2,53.6,88,30.01,10.0,NW,6.9,-,N/A,,Overcast,310,2013-07-29 02:15:00
9:35 PM,57.2,53.6,88,30.02,10.0,WNW,8.1,-,N/A,,Overcast,300,2013-07-29 02:35:00
9:55 PM,57.2,53.6,88,30.02,10.0,WNW,8.1,-,N/A,,Overcast,300,2013-07-29 02:55:00
10:35 PM,57.2,53.6,88,30.03,10.0,NNW,4.6,-,N/A,,Overcast,330,2013-07-29 03:35:00
10:55 PM,57.2,53.6,88,30.04,10.0,NNW,5.8,-,N/A,,Mostly Cloudy,330,2013-07-29 03:55:00
11:15 PM,55.4,53.6,94,30.04,10.0,NNW,4.6,-,N/A,,Mostly Cloudy,340,2013-07-29 04:15:00
11:35 PM,55.4,51.8,88,30.03,10.0,NW,3.5,-,N/A,,Scattered Clouds,320,2013-07-29 04:35:00
11:55 PM,53.6,51.8,94,30.03,10.0,NW,4.6,-,N/A,,Clear,310,2013-07-29 04:55:00